Regional Weather Roundup
Issued by NWS Midland/Odessa, TX

Skip options and go directly to product.
Home | Oldest Version | Next Version | Current Version | All | Text Only | Save Text | Print | Product List | Glossary On

Skip product version selection by date and time.   
856
ASUS44 KMAF 311401
RWRMAF
MIDLAND AREA WEATHER ROUNDUP
NATIONAL WEATHER SERVICE MIDLAND TX
900 AM CDT TUE MAR 31 2015

...IN SOUTHWEST TEXAS AND SOUTHEAST NEW MEXICO...

CITY           SKY/WX    TMP DP  RH WIND       PRES   REMARKS
ALPINE         CLOUDY    67  45  44 CALM      30.17R
ANDREWS        FAIR      54  53  97 CALM      30.03S
ARTESIA        SUNNY     52  43  71 NE3       30.05R
BIG SPRING     MOSUNNY   61  58  88 SE7       30.04R
CARLSBAD       PTSUNNY   53  46  77 N3        30.02R
DRYDEN           N/A     63  61  93 E3        30.03R
FORT STOCKTON  CLOUDY    66  49  54 W10       30.02S
GUAD PASS      CLOUDY    60  32  34 W15       30.15R
HOBBS          SUNNY     54  54 100 CALM      30.05R
MARFA          CLOUDY    57  46  67 CALM      30.17R
MIDLAND AIRPK  MOSUNNY   62  58  87 CALM      30.03R
MIDLAND INTL   MOSUNNY   62  58  86 S6        30.01S
ODESSA         PTSUNNY   64  57  78 S8        30.02R
PECOS            N/A     56  53  89 W3        30.02R
PRESIDIO       PTSUNNY   65  53  63 MISG      30.07R
SEMINOLE       SUNNY     56  54  93 W6        30.04R
SNYDER         MOSUNNY   57  57  99 S6        30.02S FOG
WINK           MOSUNNY   58  53  84 N3        30.01S
$$
...OTHER STATIONS IN TEXAS...

CITY           SKY/WX    TMP DP  RH WIND       PRES   REMARKS
ABILENE        MOSUNNY   67  61  81 SW9       30.00R
AMARILLO       SUNNY     56  40  55 NW8       30.03R
AUSTIN         CLOUDY    68  62  81 S9        30.06S
BROWNSVILLE    CLOUDY    72  70  93 S13       30.05S FOG
CORPUS CHRISTI FOG       68  67  96 S10       30.06S VSB 1
DALLAS FTW     MOSUNNY   69  64  84 SW16      30.00R
DEL RIO        CLOUDY    67  64  90 E10       30.02R
EL PASO        PTSUNNY   70  35  27 SW12      30.06R
HOUSTON INT    CLOUDY    67  65  93 SW9       30.09R
LUBBOCK        MOSUNNY   55  48  77 CALM      30.02S
SAN ANGELO     PTSUNNY   67  62  84 S12       30.01R
SAN ANTONIO    CLOUDY    68  62  81 S10       30.07R
WACO           CLOUDY    67  63  87 S10       30.05R
WICHITA FALLS  NOT AVBL
$$
...OTHER LOCATIONS IN NEW MEXICO...

CITY           SKY/WX    TMP DP  RH WIND       PRES   REMARKS
ALAMAGORDO     SUNNY     57  28  33 NE5       30.08S
ALBUQUERQUE    MOSUNNY   51  23  33 N8        30.16R
CANNON AFB     SUNNY     58  41  53 N12       30.04S
CLOVIS         SUNNY     54  45  71 NW9       30.05R
HOLLOMAN AFB   SUNNY     55  29  36 E3        30.06R
ROSWELL        SUNNY     51  44  77 NW3       30.05R
RUIDOSO        MOSUNNY   52  25  35 W8        30.21S
SANTA FE       SUNNY     44  24  45 N14       30.19R WCI  37
TRUTH OR CONSE SUNNY     58  27  30 NW8       30.11R
TUCUMCARI      SUNNY     55  32  41 W5        30.05R
$$

USA.gov is the U.S. government's official web portal to all federal, state and local government web resources and services.